Regional Weather Roundup
Issued by NWS Cleveland, OH

Home | Current Version | Previous Version | Text Only | Print | Product List | Glossary Off
Versions: 1 2 3 4 5 6 7 8 9 10 11 12 13 14 15 16 17 18 19 20 21 22 23 24 25 26 27 28 29 30 31 32 33 34 35 36 37 38 39 40 41 42 43 44 45 46 47 48 49 50

000
ASUS41 KCLE 290502
RWRCLE
OHIO REGIONAL WEATHER ROUNDUP
NATIONAL WEATHER SERVICE CLEVELAND, OH
1200 AM EST THU JAN 29 2015

NOTE: "FAIR" INDICATES FEW OR NO CLOUDS BELOW 12,000 FEET WITH NO
SIGNIFICANT WEATHER AND/OR OBSTRUCTIONS TO VISIBILITY.

OHZ001>008-015>018-024>027-034-035-043-044-290600-
   NORTHWEST OHIO

CITY           SKY/WX    TMP DP  RH WIND       PRES   REMARKS
DEFIANCE       CLOUDY    27  17  66 SE7       30.08F WCI  19
FINDLAY        CLOUDY    27  16  63 SE20G28   30.09F WCI  13
TOLEDO EXPRESS CLOUDY    24  14  65 SE6       30.10F WCI  17
TOLEDO EXEC    CLOUDY    26  14  60 S10       30.13F WCI  16
LIMA           CLOUDY    28  18  66 SE21      30.08F WCI  15
$$

OHZ009>014-019>023-028>033-038-089-290600-
   NORTHEAST OHIO

CITY           SKY/WX    TMP DP  RH WIND       PRES   REMARKS
CLE-HOPKINS    CLOUDY    25  12  58 S15       30.19F WCI  13
CLE-LAKEFRONT  CLOUDY    26  11  52 SE20      30.18F WCI  12
CUY CO. ARPT   NOT AVBL
LORAIN-ELYRIA  CLOUDY    24  12  60 S16G25    30.17F WCI  11
ASHTABULA      MOCLDY    21   6  52 S13       30.23F WCI   9
AKRON-CANTON   CLOUDY    23  12  62 S12       30.21F WCI  12
WOOSTER        CLOUDY    22  12  65 S12       30.18F WCI  10
MANSFIELD      MOCLDY    24  13  62 S20       30.13F WCI  10
YOUNGSTOWN     CLOUDY    21   9  59 S9        30.23S WCI  11
$$

OHZ042-051>053-060>062-070>072-077>081-290600-
  SOUTHWEST OHIO

CITY           SKY/WX    TMP DP  RH WIND       PRES   REMARKS
CINC-COVINGTON CLOUDY    31  19  61 SE10      30.11F WCI  22
CINC-LUNKEN    MOCLDY    31  19  61 CALM      30.16F
HAMILTON       MOCLDY    31  20  63 CALM      30.14F
DAYTON         CLOUDY    29  20  69 SE17      30.10F WCI  17
WRIGHT-PAT AFB MOCLDY    28  19  68 SE10      30.13F WCI  19
DAYTON GENERAL MOCLDY    30  19  63 SE12      30.10F WCI  20
WILMINGTON     MOCLDY    28  18  66 SE13      30.14F WCI  17
$$

OHZ036-037-039>041-045>050-054>059-063>069-073>076-082>088-290600-
  CENTRAL AND SOUTHEAST OHIO

CITY           SKY/WX    TMP DP  RH WIND       PRES   REMARKS
COLUMBUS       MOCLDY    25  14  63 SE9       30.20F WCI  15
OSU AIRPORT    CLOUDY    26  15  63 SE9       30.18F WCI  17
BOLTON FIELD   NOT AVBL
RICKENBACK AFB NOT AVBL
NEWARK         CLOUDY    24  14  65 SE6       30.20F WCI  17
MARION         CLOUDY    25  14  63 S16       30.15F WCI  12
LANCASTER      MOCLDY    27  15  61 S8        30.21F WCI  19
ZANESVILLE     CLOUDY    22  12  65 SE8       30.21F WCI  12
NEW PHILLY     CLOUDY    23  12  62 SE5       30.25F WCI  17
$$


USA.gov is the U.S. government's official web portal to all federal, state and local government web resources and services.